Location: ????????
(37.6846°N, 24.0673°E)
Time: 10:58:41
(UTC+00:00)

Okean 3 - Pass Details

Date: 14 July 2020
Orbit: 576 x 601 km, 82.5° (Epoch: 09 August)

Event Time Altitude Azimuth Distance (km) Brightness Sun altitude
Rises 00:15:55 0° 357° (N) 2,801 7.8 -25.6°
Reaches altitude 10° 00:18:08 10° 1° (N) 1,900 6.9 -25.4°
Maximum altitude 00:22:16 59° 81° (E) 676 3.8 -25.0°
Enters shadow 00:22:19 59° 85° (E) 676 3.8 -25.0°
